Regional Weather Roundup
Issued by NWS Cleveland, OH

Home | Current Version | Previous Version | Graphics & Text | Print | Product List | Glossary On
Versions: 1 2 3 4 5 6 7 8 9 10 11 12 13 14 15 16 17 18 19 20 21 22 23 24 25 26 27 28 29 30 31 32 33 34 35 36 37 38 39 40 41 42 43 44 45 46 47 48 49 50
000
ASUS41 KCLE 260112
RWRCLE
OHIO REGIONAL WEATHER ROUNDUP
NATIONAL WEATHER SERVICE WILMINGTON, OH
900 PM EDT SUN JUN 25 2017

NOTE: "FAIR" INDICATES FEW OR NO CLOUDS BELOW 12,000 FEET WITH NO
SIGNIFICANT WEATHER AND/OR OBSTRUCTIONS TO VISIBILITY.

OHZ001>008-015>018-024>027-034-035-043-044-260200-
   NORTHWEST OHIO

CITY           SKY/WX    TMP DP  RH WIND       PRES   REMARKS
DEFIANCE       CLOUDY    66  44  45 W5        30.07R
FINDLAY        CLOUDY    67  46  47 W7        30.06S
TOLEDO EXPRESS FAIR      67  43  41 W8        30.05R
TOLEDO EXEC    FAIR      68  44  42 W8        30.06R
LIMA           FAIR      65  45  48 W9        30.09R
$$

OHZ009>014-019>023-028>033-038-089-260200-
   NORTHEAST OHIO

CITY           SKY/WX    TMP DP  RH WIND       PRES   REMARKS
CLE-HOPKINS    FAIR      70  45  40 W12       30.06R
CLE-LAKEFRONT  FAIR      68  50  52 W13       30.03R
CUY CO. ARPT   MOCLDY    68  50  52 MISG      30.05S
LORAIN-ELYRIA  FAIR      66  41  40 W7        30.06R
ASHTABULA      FAIR      63  49  60 W5        30.05S
AKRON-CANTON   FAIR      66  44  45 W7        30.07R
WOOSTER        FAIR      63  48  58 W5        30.08R
MANSFIELD      FAIR      64  45  49 W6        30.09R
YOUNGSTOWN     FAIR      63  45  51 W6        30.05S
$$

OHZ042-051>053-060>062-070>072-077>081-260200-
  SOUTHWEST OHIO

CITY           SKY/WX    TMP DP  RH WIND       PRES   REMARKS
CINC-COVINGTON FAIR      70  50  49 NW8       30.12R
CINC-LUNKEN    FAIR      72  49  44 NW6       30.11R
HAMILTON       FAIR      71  48  43 W7        30.12R
DAYTON         FAIR      66  46  48 W7        30.12R
WRIGHT-PAT AFB PTCLDY    69  46  43 W7        30.10R
DAYTON GENERAL FAIR      69  46  43 W3        30.11R
WILMINGTON     FAIR      68  47  46 NW7       30.11R
$$

OHZ036-037-039>041-045>050-054>059-063>069-073>076-082>088-260200-
  CENTRAL AND SOUTHEAST OHIO

CITY           SKY/WX    TMP DP  RH WIND       PRES   REMARKS
COLUMBUS       FAIR      68  46  45 NW10      30.09R
OSU AIRPORT    FAIR      66  48  52 W9        30.10R
BOLTON FIELD   NOT AVBL
RICKENBACK AFB FAIR      68  46  44 NW6       30.09S
NEWARK         FAIR      64  45  49 W5        30.09R
MARION         FAIR      65  45  48 W6        30.09R
LANCASTER      FAIR      67  46  47 NW5       30.10R
ZANESVILLE     FAIR      67  45  45 NW6       30.09R
NEW PHILLY     FAIR      68  43  40 W5        30.09R
$$




USA.gov is the U.S. government's official web portal to all federal, state and local government web resources and services.